TimePDT,TemperatureF,Dew PointF,Humidity,Sea Level PressureIn,VisibilityMPH,Wind Direction,Wind SpeedMPH,Gust SpeedMPH,PrecipitationIn,Events,Conditions,WindDirDegrees,DateUTC
12:02 AM,53.6,51.8,94,29.99,5.0,West,6.9,-,N/A,,Mostly Cloudy,280,2012-09-02 07:02:00
12:17 AM,53.6,51.8,94,29.99,5.0,West,5.8,-,N/A,,Overcast,280,2012-09-02 07:17:00
12:51 AM,55.0,53.1,93,29.99,4.0,WNW,6.9,-,N/A,,Overcast,300,2012-09-02 07:51:00
1:51 AM,53.1,52.0,96,29.98,4.0,Calm,Calm,-,N/A,,Overcast,0,2012-09-02 08:51:00
2:51 AM,52.0,50.0,93,29.97,6.0,Calm,Calm,-,N/A,,Overcast,0,2012-09-02 09:51:00
3:51 AM,54.0,52.0,93,29.96,5.0,Calm,Calm,-,N/A,,Overcast,0,2012-09-02 10:51:00
4:51 AM,54.0,52.0,93,29.96,3.0,Calm,Calm,-,N/A,,Overcast,0,2012-09-02 11:51:00
5:13 AM,53.6,51.8,94,29.95,2.0,Calm,Calm,-,N/A,,Overcast,0,2012-09-02 12:13:00
5:35 AM,53.6,51.8,94,29.96,1.8,Calm,Calm,-,N/A,,Overcast,0,2012-09-02 12:35:00
5:51 AM,53.1,52.0,96,29.96,1.5,West,3.5,-,N/A,,Overcast,270,2012-09-02 12:51:00
6:51 AM,53.1,53.1,100,29.97,1.2,Calm,Calm,-,N/A,,Overcast,0,2012-09-02 13:51:00
7:33 AM,53.6,51.8,94,29.97,1.5,Calm,Calm,-,N/A,,Overcast,0,2012-09-02 14:33:00
7:51 AM,53.1,53.1,100,29.98,1.5,Calm,Calm,-,N/A,,Overcast,0,2012-09-02 14:51:00
8:51 AM,54.0,53.1,97,29.99,2.5,Calm,Calm,-,N/A,,Overcast,0,2012-09-02 15:51:00
9:51 AM,55.9,52.0,87,29.99,5.0,SSW,3.5,-,N/A,,Overcast,210,2012-09-02 16:51:00
10:31 AM,60.8,53.6,77,29.99,6.0,NNW,3.5,-,N/A,,Haze,340,2012-09-02 17:31:00
10:51 AM,62.1,53.1,72,29.99,7.0,Variable,3.5,-,N/A,,Scattered Clouds,0,2012-09-02 17:51:00
11:51 AM,66.0,54.0,65,29.99,7.0,Variable,5.8,-,N/A,,Clear,0,2012-09-02 18:51:00
12:51 PM,66.9,54.0,63,29.98,8.0,West,9.2,-,N/A,,Clear,280,2012-09-02 19:51:00
1:51 PM,68.0,54.0,61,29.97,9.0,WNW,10.4,-,N/A,,Clear,290,2012-09-02 20:51:00
2:51 PM,66.9,54.0,63,29.96,9.0,WNW,11.5,-,N/A,,Clear,290,2012-09-02 21:51:00
3:51 PM,66.9,54.0,63,29.94,9.0,WNW,8.1,-,N/A,,Clear,300,2012-09-02 22:51:00
4:51 PM,66.0,54.0,65,29.95,8.0,WNW,8.1,-,N/A,,Clear,300,2012-09-02 23:51:00
5:51 PM,63.0,54.0,72,29.94,7.0,WNW,8.1,-,N/A,,Clear,290,2012-09-03 00:51:00
6:51 PM,57.9,53.1,84,29.94,6.0,WNW,8.1,-,N/A,,Haze,300,2012-09-03 01:51:00
7:24 PM,55.4,53.6,94,29.94,5.0,NW,5.8,-,N/A,,Mostly Cloudy,310,2012-09-03 02:24:00
7:32 PM,55.4,53.6,94,29.94,4.0,NW,5.8,-,N/A,,Overcast,310,2012-09-03 02:32:00
7:51 PM,55.9,54.0,93,29.95,5.0,WNW,6.9,-,N/A,,Overcast,300,2012-09-03 02:51:00
8:35 PM,55.4,53.6,94,29.95,2.5,WNW,3.5,-,N/A,,Overcast,300,2012-09-03 03:35:00
8:51 PM,55.0,53.1,93,29.96,3.0,Calm,Calm,-,N/A,,Overcast,0,2012-09-03 03:51:00
9:47 PM,55.4,53.6,94,29.96,2.5,Calm,Calm,-,N/A,,Overcast,0,2012-09-03 04:47:00
9:51 PM,55.0,54.0,96,29.96,2.5,Calm,Calm,-,N/A,,Overcast,0,2012-09-03 04:51:00
10:23 PM,55.4,53.6,94,29.96,3.0,Calm,Calm,-,N/A,,Overcast,0,2012-09-03 05:23:00
10:30 PM,55.4,53.6,94,29.96,2.0,Calm,Calm,-,N/A,,Overcast,0,2012-09-03 05:30:00
10:47 PM,55.4,53.6,94,29.96,3.0,Calm,Calm,-,N/A,,Overcast,0,2012-09-03 05:47:00
10:51 PM,55.0,54.0,96,29.96,3.0,Calm,Calm,-,N/A,,Overcast,0,2012-09-03 05:51:00
11:00 PM,55.4,53.6,94,29.96,2.5,Calm,Calm,-,N/A,,Overcast,0,2012-09-03 06:00:00
11:51 PM,55.0,54.0,96,29.96,2.0,Calm,Calm,-,N/A,,Overcast,0,2012-09-03 06:51:00